Location: Grossmotten
(48.5500°N, 15.3833°E)
Time: 21:21:43
(UTC+00:00)

Cosmos 1484 Rocket - Pass Details

Date: 15 November 2019
Orbit: 507 x 559 km, 97.4° (Epoch: 10 December)

Event Time Altitude Azimuth Distance (km) Brightness Sun altitude
Rises 04:18:51 0° 11° (N) 2,743 6.4 -17.6°
Reaches altitude 10° 04:20:59 10° 9° (N) 1,849 5.5 -17.3°
Maximum altitude 04:24:59 74° 285° (WNW) 586 2.7 -16.6°
Drops below altitude 10° 04:28:58 10° 201° (SSW) 1,843 5.4 -16.0°
Sets 04:31:05 0° 199° (SSW) 2,734 6.3 -15.6°
